Back to catalog

LEMUR-2 CALLUM-K-J

AliveScienceSSO
NORAD 67366·PAYLOAD·🇺🇸 United States

Launched Jan 11, 2026 from Vandenberg Space Force Base

Loading…

Next Passes (next 24 hours)

TLE

FreshSource: Space-Track

Epoch: Sep 13, 2026, 22:18 UTC

1 67366U 26004D   26256.92926574  .00003286  00000-0  35608-3 0  9999
2 67366  97.8073 254.1852 0008019 192.8358 167.2656 14.88868130 36497

Track LEMUR-2 CALLUM-K-J in real time with AllMySat

Download on the App Store